Find Starlink 30893

NORAD ID: 58724 Int'l Des: 2024-002 Owner: SPXS Country: US Constellation: starlink operational
LEOCIRCULAR

リアルタイム位置

3D地球を読み込み中...

Starlink 30893について

説明を読み込み中...

次回通過

Passes for default location (London). Set your location on the main map for personalized predictions.

高度履歴

Loading altitude history...

軌道要素

1 58724U 24002V 26121.86586710 -.00000029 00000-0 11154-4 0 9995
2 58724 53.1615 343.1615 0001190 116.8871 243.2251 15.30183083130145
Epoch: May 1, 2026 • Age: 9 hours

現在のステータス

高度 494.2 km
速度 7.62 km/s
衛星直下点 -52.62°S, 67.94°W
打ち上げ日 Jan 3, 2024
運用期間 2.3 years
タイプ internet

技術仕様

分類 Payload
質量 730.00 kg
乾燥質量 700.00 kg
総質量 730.00 kg
長さ 0.30 m
直径 4.10 m
スパン 29.00 m
形状 Box + pan
製造者 SPXS
バスタイプ Starlink V2M
フェーズステータス In Orbit
所有者/国 SPXS/US

Most Searched